This demonstration page uses our WeatherBlox Daily Observations layout. Learn more.

Left ArrowRight Arrow

Hourly Observations for April 3, 2021

Temp ( °F °C ) Dew Point ( °F °C ) Humidity (%) Winds ( mph kmh ) Pressure ( in mb ) Visibility ( mi km ) Precip ( " mm )
12:15 am 00:15 Clear 36 2 16 -9 44 44 N 5 7 30.42 1030 10 16.0934 0 0
12:35 am 00:35 Clear 36 2 16 -9 44 44 Calm 30.42 1030 10 16.0934 0 0
12:55 am 00:55 Clear 36 2 16 -9 44 44 Calm 30.42 1030 10 16.0934 0 0
1:15 am 01:15 Clear 32 0 18 -8 55 55 Calm 30.42 1030 10 16.0934 0 0
1:35 am 01:35 Clear 32 0 18 -8 55 55 Calm 30.42 1030 10 16.0934 0 0
1:55 am 01:55 Clear 32 0 18 -8 55 55 N 3 6 30.43 1031 10 16.0934 0 0
2:15 am 02:15 Clear 32 0 18 -8 55 55 NNW 5 7 30.43 1031 10 16.0934 0 0
2:35 am 02:35 Clear 32 0 18 -8 55 55 NW 5 7 30.43 1031 10 16.0934 0 0
2:55 am 02:55 Clear 32 0 19 -7 60 60 NNW 7 11 30.43 1031 10 16.0934 0 0
3:15 am 03:15 Clear 32 0 18 -8 55 55 Calm 30.43 1031 10 16.0934 0 0
3:35 am 03:35 Clear 32 0 18 -8 55 55 NNW 3 6 30.43 1031 10 16.0934 0 0
3:55 am 03:55 Clear 32 0 18 -8 55 55 N 3 6 30.43 1031 10 16.0934 0 0
4:15 am 04:15 Clear 32 0 18 -8 55 55 N 3 6 30.44 1031 10 16.0934 0 0
4:35 am 04:35 Clear 32 0 18 -8 55 55 Calm 30.43 1031 10 16.0934 0 0
4:55 am 04:55 Clear 30 -1 18 -8 59 59 Calm 30.44 1031 10 16.0934 0 0
5:15 am 05:15 Clear 30 -1 18 -8 59 59 Calm 30.45 1031 10 16.0934 0 0
5:35 am 05:35 Clear 28 -2 21 -6 74 74 WNW 3 6 30.46 1031 10 16.0934 0 0
5:55 am 05:55 Clear 27 -3 21 -6 80 80 WNW 6 9 30.47 1032 10 16.0934 0 0
6:15 am 06:15 Clear 27 -3 21 -6 80 80 W 3 6 30.48 1032 10 16.0934 0 0
6:35 am 06:35 Clear 30 -1 21 -6 69 69 W 3 6 30.48 1032 10 16.0934 0 0
6:55 am 06:55 Sunny 30 -1 19 -7 64 64 Calm 30.48 1032 10 16.0934 0 0
7:15 am 07:15 Sunny 32 0 18 -8 55 55 Calm 30.49 1033 10 16.0934 0 0
7:35 am 07:35 Sunny 30 -1 19 -7 64 64 WNW 5 7 30.5 1033 10 16.0934 0 0
7:55 am 07:55 Sunny 32 0 21 -6 64 64 NNW 3 6 30.51 1033 10 16.0934 0 0
8:15 am 08:15 Sunny 34 1 21 -6 60 60 NNW 7 11 30.51 1033 10 16.0934 0 0
8:35 am 08:35 Sunny 36 2 21 -6 56 56 NNW 10 17 30.51 1033 10 16.0934 0 0
8:55 am 08:55 Sunny 37 3 21 -6 52 52 NNW 9 15 30.5 1033 10 16.0934 0 0
9:15 am 09:15 Sunny 37 3 21 -6 52 52 NNW 10 17 30.5 1033 10 16.0934 0 0
9:35 am 09:35 Sunny 39 4 19 -7 45 45 NW 10 17 30.5 1033 10 16.0934 0 0
9:55 am 09:55 Sunny 41 5 18 -8 39 39 N 9 15 30.49 1033 10 16.0934 0 0
10:15 am 10:15 Sunny 41 5 19 -7 42 42 NNW 10 17 30.49 1033 10 16.0934 0 0
10:35 am 10:35 Sunny 43 6 19 -7 39 39 N 8 13 30.49 1033 10 16.0934 0 0
10:55 am 10:55 Sunny 41 5 19 -7 42 42 N 6 9 30.48 1032 10 16.0934 0 0
11:15 am 11:15 Sunny 43 6 19 -7 39 39 NW 6 9 30.47 1032 10 16.0934 0 0
11:35 am 11:35 Sunny 45 7 19 -7 37 37 NNE 5 7 30.46 1032 10 16.0934 0 0
11:55 am 11:55 Sunny 45 7 19 -7 37 37 Calm 30.45 1031 10 16.0934 0 0
12:15 pm 12:15 Sunny 46 8 21 -6 37 37 WNW 5 7 30.44 1031 10 16.0934 0 0
12:35 pm 12:35 Sunny 46 8 19 -7 34 34 NNW 6 9 30.44 1031 10 16.0934 0 0
12:55 pm 12:55 Sunny 46 8 21 -6 37 37 W 5 7 30.43 1030 10 16.0934 0 0
1:15 pm 13:15 Sunny 48 9 19 -7 32 32 N 5 7 30.41 1030 10 16.0934 0 0
1:35 pm 13:35 Sunny 50 10 19 -7 30 30 NW 9 15 30.41 1030 10 16.0934 0 0
1:55 pm 13:55 Sunny 50 10 19 -7 30 30 N 3 6 30.41 1030 10 16.0934 0 0
2:15 pm 14:15 Sunny 50 10 21 -6 32 32 NW 6 9 30.39 1029 10 16.0934 0 0
2:35 pm 14:35 Sunny 50 10 19 -7 30 30 Calm 30.38 1029 10 16.0934 0 0
2:55 pm 14:55 Sunny 52 11 23 -5 32 32 NW 7 11 30.36 1028 10 16.0934 0 0
3:15 pm 15:15 Sunny 52 11 19 -7 28 28 W 3 6 30.35 1028 10 16.0934 0 0
3:35 pm 15:35 Sunny 52 11 19 -7 28 28 W 6 9 30.33 1027 10 16.0934 0 0
3:55 pm 15:55 Sunny 54 12 19 -7 26 26 NW 3 6 30.32 1027 10 16.0934 0 0
4:15 pm 16:15 Sunny 54 12 21 -6 28 28 N 5 7 30.31 1027 10 16.0934 0 0
4:35 pm 16:35 Sunny 54 12 21 -6 28 28 W 3 6 30.31 1027 10 16.0934 0 0
4:55 pm 16:55 Sunny 54 12 21 -6 28 28 SW 7 11 30.3 1026 10 16.0934 0 0
5:15 pm 17:15 Sunny 54 12 21 -6 28 28 SW 6 9 30.29 1026 10 16.0934 0 0
5:35 pm 17:35 Sunny 55 13 21 -6 26 26 W 5 7 30.29 1026 10 16.0934 0 0
5:55 pm 17:55 Sunny 55 13 21 -6 26 26 SW 3 6 30.28 1025 10 16.0934 0 0
6:15 pm 18:15 Sunny 54 12 21 -6 28 28 Calm 30.28 1026 10 16.0934 0 0
6:35 pm 18:35 Sunny 54 12 21 -6 28 28 S 3 6 30.27 1025 10 16.0934 0 0
6:55 pm 18:55 Partly Cloudy 54 12 21 -6 28 28 Calm 30.27 1025 10 16.0934 0 0
7:15 pm 19:15 Partly Cloudy 54 12 21 -6 28 28 Calm 30.27 1025 10 16.0934 0 0
7:35 pm 19:35 Sunny 50 10 23 -5 35 35 S 6 9 30.28 1025 10 16.0934 0 0
7:55 pm 19:55 Clear 50 10 21 -6 32 32 S 6 9 30.28 1025 10 16.0934 0 0
8:15 pm 20:15 Clear 50 10 21 -6 32 32 S 6 9 30.28 1025 10 16.0934 0 0
8:35 pm 20:35 Clear 50 10 21 -6 32 32 S 5 7 30.28 1025 10 16.0934 0 0
8:55 pm 20:55 Clear 48 9 21 -6 34 34 Calm 30.28 1025 10 16.0934 0 0
9:15 pm 21:15 Clear 48 9 21 -6 34 34 S 3 6 30.28 1025 10 16.0934 0 0
9:35 pm 21:35 Clear 46 8 23 -5 40 40 SSW 3 6 30.28 1025 10 16.0934 0 0
9:55 pm 21:55 Clear 43 6 28 -2 57 57 Calm 30.29 1026 10 16.0934 0 0
10:15 pm 22:15 Clear 46 8 23 -5 40 40 S 5 7 30.28 1025 10 16.0934 0 0
10:35 pm 22:35 Clear 45 7 23 -5 42 42 S 5 7 30.28 1025 10 16.0934 0 0
10:55 pm 22:55 Clear 41 5 30 -1 66 66 S 3 6 30.27 1025 10 16.0934 0 0
11:15 pm 23:15 Clear 41 5 28 -2 61 61 S 6 9 30.27 1025 10 16.0934 0 0
11:35 pm 23:35 Clear 41 5 28 -2 61 61 S 6 9 30.26 1025 10 16.0934 0 0
11:55 pm 23:55 Clear 37 3 27 -3 65 65 S 3 6 30.27 1025 10 16.0934 0 0

Powered by AerisWeather